Vertical_Velocity
-1 -2 -1 -0 0 -0 0 1 1 1 1 1 1 -0 1 1 2 0 1 3 3 1 1 -1 2 0 2 -1 -0 1 0 2 -3 -1 0 1 0 -1 -1 0 1 -0 -1
-1 -1 -1 -1 -1 -0 0 -0 1 1 -0 1 1 1 1 1 1 0 -1 -1 -0 -1 -1 -2 -6 -3 1 2 3 4 2 1 1 -1 -2 -0 1 1 0 -1 -1 -0 0
-1 -1 -1 -2 -1 -0 -0 -0 -1 -0 1 1 1 1 1 -0 -0 -1 -0 0 1 -0 -1 -1 -0 -3 -3 -1 3 2 4 3 4 1 1 -0 -0 1 2 3 2 0 -0
-1 -2 -2 -1 -0 -1 -1 0 -0 -1 -2 -1 0 -1 -1 -1 1 -1 -1 -1 -1 -1 -1 -1 -0 0 0 -1 1 2 16 5 8 8 4 1 -0 -1 -1 1 2 0 -1
-1 -1 -1 -1 -1 -1 -1 0 -2 1 -0 0 -1 -1 -1 -1 -0 0 0 -2 -1 -1 -2 -1 -0 2 2 1 2 1 -1 4 -2 7 4 2 -0 3 7 3 3 1 -0
-2 -2 -2 -1 -1 -1 -2 -0 -1 -2 0 2 1 2 0 0 -1 -0 -1 0 -1 -1 -2 -1 0 -1 -2 0 1 -0 -2 -1 11 -4 46 13 7 -2 11 1 5 3 3
-2 -2 -2 -1 1 0 -1 -1 -0 -1 0 0 -1 -4 -1 -3 -2 -3 -1 1 0 -0 -2 -3 -2 -0 2 1 -0 -0 -3 -2 -0 6 4 8 1 -20 -8 6 6 7 0
-2 -1 -2 -1 -2 -0 0 -0 -1 -1 -2 -0 2 -1 3 -1 -1 -3 -2 -4 -5 -3 -3 -3 -2 0 -2 -1 1 1 2 1 -1 2 6 11 7 -30 138 20 6 9 2
-1 -0 -1 0 0 0 1 0 -1 -1 -1 -1 -2 -1 -1 -1 4 1 -1 -3 -3 -1 -1 -5 -3 -2 -3 -2 -1 -0 -1 1 1 -3 -6 16 -17 -25 -12 134 38 -7 8
0 -1 -1 -1 1 1 1 0 0 -1 1 -3 -0 -2 0 1 -4 4 -3 -3 -3 -2 -4 -5 -3 -2 -3 -4 -3 -1 1 0 1 2 1 -1 11 -3 21 -14 41 1 -9
-0 0 1 0 1 1 1 -0 -1 -3 2 -3 3 0 -1 -2 -4 -4 -2 3 -4 -2 -5 -5 -2 -1 -1 -5 -2 -2 1 6 -2 2 1 -2 1 -5 1 -2 -3 98 12
1 -1 -1 0 -2 0 -0 1 2 -2 2 -3 1 -0 0 -0 -3 -1 -1 -2 -5 -4 -7 -4 -2 -3 -4 -2 -5 -1 -1 5 7 3 1 2 12 3 24 -17 1 3 29
3 -0 2 1 1 -1 -0 2 0 -1 -2 -3 0 -1 -2 -2 -1 -0 -1 -2 -1 -4 -4 -6 -3 -1 -3 1 -3 -5 -2 -1 6 -2 24 8 4 8 2 2 3 -5 -19
-2 1 -1 2 1 -1 0 -2 0 -1 -1 -3 -0 -0 -1 -1 -2 0 -0 -1 1 -5 -4 -2 -3 -3 -2 -2 -1 -1 -2 -6 -5 4 42 16 6 2 -2 -4 -3 -10 -1
2 1 -3 -2 1 -0 -1 -1 0 -1 -1 -2 -0 -0 -1 -0 -1 0 -0 -1 -1 -1 -1 -3 -3 -2 -3 -3 -2 0 -1 -1 -4 -5 -8 0 -2 -1 5 1 2 3 3
3 4 1 1 1 -0 -1 0 -1 -0 0 -1 -1 -0 -0 -1 -1 0 -1 -1 -1 -2 -0 -1 -3 -3 -3 -2 -1 0 1 -2 -3 0 -1 -4 -2 4 -2 -6 -5 0 -2
1 0 -0 1 1 -0 -1 -0 -0 1 0 -1 -1 0 1 1 -1 -1 0 -1 -1 -1 -1 -1 -2 -2 -1 -1 -1 -2 -1 4 -1 -3 -1 0 -0 -1 -1 1 1 -3 -1
2 2 2 1 1 0 -0 1 -1 1 1 -2 -1 -0 0 1 -0 -2 -1 -0 0 -1 -1 0 -0 -2 -3 -2 -2 -1 0 -1 2 3 0 1 1 2 1 1 0 2 1
0 1 0 -0 -1 0 1 1 0 1 1 -1 0 -1 -1 1 1 1 0 -0 -0 -0 -1 0 0 -1 -0 -2 -1 -1 -1 -1 -1 -1 -2 -3 -2 1 2 2 1 -0 -1
1 -0 -1 3 1 1 0 1 2 1 0 -1 1 -0 -0 0 -0 -0 0 -1 -0 -0 -1 0 1 1 -0 -0 -0 -0 0 -0 -2 -2 -1 -1 -1 -1 -2 -0 -1 -1 1
1 -0 -0 0 -0 0 -1 1 1 0 1 -0 -1 0 1 1 -0 -1 -0 -0 -1 -1 -0 -1 0 1 0 0 -1 0 -1 -0 2 -1 -2 -1 -1 0 -1 1 0 -1 -1
-2 -1 -0 1 1 1 -1 1 1 1 0 1 1 -1 0 0 -0 -1 -0 1 0 -1 -1 -0 -1 -1 -0 -1 -0 -1 -1 -1 -1 -2 -1 2 1 1 -0 -0 1 1 0
-1 2 2 -0 2 2 -1 -0 -0 1 1 -0 0 2 0 -1 0 -1 -2 -0 0 -0 -0 -1 0 -2 0 -1 -1 -1 -0 0 0 1 0 0 -1 -0 -0 -1 0 2 1
2 -0 1 -3 -1 3 -2 -1 -1 1 1 1 1 -1 -0 0 -1 -1 0 0 -1 -0 -0 0 0 0 0 0 0 0 1 -1 -0 -1 -2 -0 -1 1 2 0 -1 -1 -0
-0 1 4 3 -1 5 -2 -0 -3 -1 1 3 2 1 1 2 -0 -2 1 2 -0 -0 -2 -0 -0 -0 -0 -0 1 1 1 0 1 1 0 -1 -0 -2 -3 -1 0 1 1
1 -0 2 1 -1 5 1 2 -2 -1 1 2 1 3 1 1 -1 -1 -0 -0 2 1 -2 0 1 0 -0 -0 -1 0 1 1 0 0 1 -1 1 -1 -2 -1 -2 -1 -2
Height
3165 3163 3160 3156 3154 3151 3149 3146 3144 3142 3139 3138 3136 3135 3134 3133 3132 3131 3131 3132 3131 3130 3130 3131 3132 3132 3132 3132 3133 3134 3135 3135 3134 3133 3133 3133 3134 3134 3134 3135 3135 3136 3136
3159 3156 3153 3149 3146 3143 3140 3138 3135 3133 3131 3130 3128 3126 3126 3124 3123 3123 3122 3122 3122 3121 3120 3120 3121 3122 3123 3123 3124 3125 3126 3127 3128 3128 3128 3128 3128 3129 3129 3129 3130 3131 3131
3151 3148 3144 3141 3138 3134 3132 3130 3128 3125 3124 3122 3122 3120 3117 3116 3115 3114 3112 3111 3111 3111 3110 3109 3109 3110 3111 3112 3114 3116 3118 3119 3120 3121 3122 3122 3122 3123 3123 3124 3125 3126 3127
3143 3140 3137 3133 3130 3127 3125 3123 3120 3118 3117 3116 3115 3112 3110 3109 3108 3106 3105 3102 3101 3100 3100 3099 3098 3099 3100 3101 3102 3105 3107 3110 3111 3113 3113 3115 3116 3117 3117 3118 3119 3120 3121
3136 3133 3130 3126 3123 3120 3118 3115 3112 3111 3110 3110 3109 3107 3105 3103 3102 3099 3097 3095 3092 3092 3091 3091 3089 3088 3088 3088 3090 3093 3097 3099 3101 3103 3105 3106 3108 3109 3110 3112 3113 3114 3115
3130 3126 3123 3119 3116 3114 3112 3109 3107 3106 3106 3106 3105 3103 3101 3099 3097 3094 3091 3089 3087 3085 3083 3082 3080 3080 3077 3077 3078 3079 3083 3087 3089 3093 3090 3096 3097 3100 3099 3105 3107 3108 3109
3123 3120 3117 3113 3111 3110 3109 3107 3105 3104 3103 3103 3102 3099 3097 3095 3092 3089 3086 3084 3082 3080 3078 3075 3071 3067 3067 3066 3065 3067 3070 3073 3078 3081 3085 3082 3085 3084 3084 3093 3098 3100 3102
3118 3114 3112 3110 3108 3107 3106 3105 3103 3101 3100 3099 3098 3098 3096 3094 3089 3084 3080 3078 3076 3074 3071 3066 3061 3057 3055 3055 3055 3055 3057 3062 3065 3070 3073 3075 3076 3079 3075 3080 3089 3092 3093
3113 3110 3108 3107 3105 3104 3103 3102 3101 3100 3097 3096 3095 3094 3092 3091 3088 3081 3077 3075 3072 3068 3064 3059 3053 3050 3048 3046 3045 3046 3047 3049 3054 3059 3066 3069 3073 3075 3071 3067 3073 3081 3085
3108 3106 3105 3104 3102 3101 3100 3099 3098 3097 3096 3094 3091 3089 3087 3087 3086 3083 3074 3071 3067 3064 3060 3051 3048 3045 3043 3042 3041 3039 3040 3042 3045 3051 3058 3062 3066 3070 3067 3064 3061 3074 3077
3105 3104 3102 3101 3100 3099 3097 3096 3096 3095 3094 3092 3089 3087 3083 3081 3078 3077 3075 3071 3065 3061 3053 3048 3046 3045 3042 3040 3039 3037 3037 3038 3040 3044 3050 3056 3059 3060 3061 3062 3065 3059 3065
3102 3102 3101 3100 3099 3097 3096 3095 3095 3093 3091 3088 3086 3085 3082 3079 3076 3071 3068 3065 3062 3059 3053 3047 3044 3043 3041 3038 3037 3036 3035 3036 3038 3041 3046 3050 3052 3056 3054 3056 3056 3057 3060
3100 3099 3097 3098 3097 3095 3094 3093 3093 3091 3088 3086 3084 3082 3080 3077 3073 3069 3066 3063 3060 3057 3052 3048 3045 3042 3040 3037 3036 3034 3036 3035 3038 3039 3042 3045 3049 3052 3051 3053 3054 3056 3058
3097 3097 3097 3095 3094 3093 3092 3092 3090 3088 3086 3083 3081 3079 3077 3075 3072 3068 3065 3062 3059 3054 3051 3047 3044 3042 3040 3037 3035 3034 3035 3035 3035 3029 3030 3039 3043 3045 3048 3050 3052 3052 3054
3094 3093 3093 3093 3092 3091 3090 3089 3087 3085 3083 3081 3078 3076 3074 3071 3068 3066 3063 3060 3056 3053 3049 3046 3043 3041 3038 3036 3034 3034 3035 3035 3035 3036 3037 3035 3039 3043 3045 3047 3048 3049 3049
3091 3090 3090 3089 3088 3088 3087 3086 3084 3082 3080 3078 3075 3073 3070 3068 3065 3063 3061 3058 3054 3051 3048 3044 3041 3038 3036 3034 3034 3032 3032 3033 3034 3034 3035 3036 3037 3038 3040 3042 3044 3045 3045
3089 3087 3086 3085 3085 3084 3083 3082 3080 3078 3077 3074 3072 3070 3067 3064 3062 3060 3058 3055 3051 3049 3045 3042 3039 3037 3035 3033 3031 3030 3030 3028 3029 3029 3030 3031 3031 3032 3032 3033 3034 3035 3037
3084 3082 3081 3081 3080 3079 3078 3077 3076 3075 3073 3070 3069 3066 3063 3061 3059 3056 3054 3051 3048 3045 3043 3040 3037 3034 3032 3030 3029 3028 3027 3027 3025 3024 3023 3023 3023 3024 3025 3026 3027 3027 3027
3079 3078 3077 3076 3075 3074 3073 3072 3071 3070 3068 3066 3064 3062 3059 3057 3055 3052 3050 3047 3045 3042 3039 3037 3035 3032 3029 3027 3026 3025 3024 3023 3021 3020 3019 3019 3019 3019 3019 3019 3019 3019 3019
3073 3072 3071 3070 3069 3068 3067 3066 3065 3064 3062 3060 3058 3056 3054 3052 3050 3048 3045 3043 3040 3038 3035 3032 3030 3028 3026 3024 3022 3021 3020 3019 3018 3017 3016 3015 3014 3013 3013 3013 3013 3013 3013
3066 3065 3065 3064 3063 3062 3061 3060 3059 3057 3056 3054 3052 3050 3048 3046 3044 3042 3040 3037 3035 3032 3030 3027 3025 3023 3021 3020 3018 3016 3014 3013 3012 3010 3010 3009 3008 3007 3007 3007 3007 3006 3006
3058 3057 3057 3056 3056 3055 3054 3052 3052 3051 3049 3048 3046 3043 3041 3039 3037 3035 3033 3031 3029 3026 3024 3022 3020 3018 3016 3014 3012 3011 3009 3007 3006 3004 3003 3002 3000 3000 3000 2999 2999 2998 2998
3050 3049 3048 3048 3047 3046 3045 3044 3043 3042 3041 3039 3038 3035 3033 3031 3029 3027 3025 3024 3021 3019 3017 3015 3013 3011 3010 3008 3006 3005 3003 3001 3000 2999 2997 2995 2993 2992 2992 2991 2991 2990 2990
3040 3039 3039 3038 3038 3038 3036 3034 3033 3032 3032 3031 3028 3026 3025 3023 3020 3018 3017 3015 3013 3011 3009 3007 3006 3004 3002 3001 2999 2998 2996 2995 2993 2992 2991 2990 2988 2987 2985 2984 2984 2983 2982
3032 3030 3028 3028 3028 3028 3025 3024 3022 3021 3021 3020 3019 3016 3014 3014 3011 3008 3007 3006 3004 3003 3000 2999 2997 2996 2995 2993 2992 2990 2989 2988 2986 2985 2984 2983 2982 2980 2979 2978 2976 2974 2973
3022 3021 3020 3018 3017 3016 3014 3012 3010 3009 3009 3009 3008 3006 3003 3002 3000 2997 2996 2995 2995 2993 2990 2989 2988 2987 2986 2985 2984 2982 2980 2979 2978 2977 2976 2975 2973 2972 2971 2970 2969 2967 2966